Total_Precipitation_Accumulation
0.03 0.01 0.02 0.23 1.31 2.44 3.05 2.75 2.00 1.26 1.03 0.18 0.05 0.01 0.00 0.00 0.00 0.00 0.00 0.00 0.00 0.00 0.00 0.00 0.00 0.00 0.00 0.00 0.00 0.00 0.00 0.00 0.00 0.00 0.00 0.00 0.00 0.00 0.00 0.00 0.00 0.00 0.00
0.01 0.03 0.00 0.04 0.49 1.79 3.02 2.58 2.40 1.87 1.70 0.43 0.07 0.01 0.00 0.00 0.00 0.00 0.00 0.00 0.00 0.00 0.00 0.00 0.00 0.00 0.00 0.00 0.00 0.00 0.00 0.00 0.00 0.00 0.00 0.00 0.00 0.00 0.00 0.00 0.00 0.00 0.00
0.00 0.02 0.01 0.01 0.15 0.65 2.52 3.25 2.28 1.73 1.47 1.14 0.31 0.10 0.02 0.01 0.00 0.00 0.00 0.02 0.01 0.00 0.00 0.00 0.00 0.00 0.00 0.00 0.00 0.01 0.01 0.01 0.01 0.01 0.00 0.00 0.00 0.00 0.00 0.00 0.00 0.00 0.00
0.00 0.00 0.01 0.00 0.06 0.26 1.16 3.38 2.76 1.87 1.59 1.34 0.66 0.34 0.20 0.05 0.02 0.03 0.05 0.05 0.05 0.01 0.01 0.01 0.01 0.04 0.01 0.04 0.05 0.06 0.05 0.02 0.03 0.01 0.00 0.00 0.00 0.00 0.00 0.00 0.00 0.00 0.00
0.01 0.00 0.00 0.01 0.06 0.20 0.52 1.88 2.43 3.06 2.71 2.80 1.60 1.07 0.95 0.46 0.20 0.15 0.15 0.15 0.09 0.05 0.07 0.10 0.15 0.17 0.14 0.12 0.14 0.12 0.05 0.05 0.04 0.03 0.02 0.01 0.00 0.00 0.02 0.01 0.00 0.00 0.01
0.01 0.02 0.01 0.04 0.09 0.20 0.30 1.13 1.82 2.44 3.36 4.12 4.42 3.10 2.05 1.22 0.83 0.35 0.24 0.27 0.24 0.15 0.17 0.22 0.21 0.18 0.18 0.16 0.12 0.08 0.07 0.08 0.06 0.03 0.03 0.05 0.06 0.06 0.09 0.08 0.05 0.07 0.05
0.02 0.04 0.02 0.09 0.19 0.19 0.24 0.35 1.12 1.64 2.39 3.24 4.12 3.57 3.18 1.75 1.09 0.77 0.57 0.53 0.54 0.62 0.61 0.44 0.38 0.36 0.27 0.19 0.17 0.12 0.08 0.08 0.08 0.08 0.19 0.30 0.35 0.41 0.41 0.37 0.32 0.24 0.18
0.07 0.07 0.07 0.11 0.16 0.15 0.19 0.15 0.31 0.64 1.18 1.81 2.69 2.18 1.74 1.91 1.96 1.49 0.87 0.52 0.47 0.56 0.75 0.55 0.33 0.32 0.35 0.27 0.21 0.19 0.17 0.18 0.17 0.19 0.23 0.33 0.44 0.62 0.73 0.71 0.57 0.41 0.28
0.17 0.13 0.15 0.12 0.15 0.13 0.14 0.10 0.13 0.18 0.44 0.83 1.31 1.40 1.18 1.12 1.36 1.72 1.74 0.73 0.48 0.50 0.52 0.47 0.33 0.24 0.22 0.19 0.19 0.19 0.19 0.20 0.21 0.16 0.09 0.06 0.09 0.16 0.22 0.31 0.32 0.31 0.20
0.37 0.18 0.14 0.07 0.09 0.12 0.11 0.11 0.13 0.14 0.17 0.35 0.49 0.67 0.69 0.61 0.92 1.01 1.28 1.21 0.43 0.27 0.33 0.35 0.25 0.18 0.18 0.20 0.18 0.14 0.09 0.08 0.11 0.13 0.10 0.07 0.04 0.04 0.08 0.15 0.18 0.23 0.31
0.41 0.17 0.14 0.10 0.06 0.16 0.09 0.06 0.07 0.05 0.06 0.09 0.17 0.31 0.37 0.36 0.43 0.49 0.61 0.91 0.84 0.38 0.22 0.20 0.21 0.18 0.13 0.13 0.16 0.15 0.11 0.06 0.03 0.01 0.00 0.01 0.00 0.01 0.01 0.04 0.06 0.10 0.14
0.40 0.21 0.17 0.19 0.11 0.09 0.06 0.03 0.04 0.03 0.03 0.05 0.07 0.09 0.06 0.11 0.15 0.12 0.17 0.36 0.60 0.65 0.30 0.17 0.15 0.14 0.13 0.10 0.14 0.07 0.07 0.04 0.01 0.00 0.00 0.00 0.00 0.00 0.00 0.00 0.00 0.00 0.00
0.44 0.46 0.22 0.22 0.17 0.19 0.08 0.04 0.04 0.01 0.02 0.04 0.02 0.02 0.04 0.04 0.05 0.04 0.06 0.08 0.24 0.42 0.26 0.15 0.10 0.07 0.07 0.08 0.06 0.04 0.01 0.00 0.00 0.00 0.00 0.00 0.00 0.00 0.00 0.00 0.00 0.00 0.00
0.39 0.58 0.41 0.23 0.17 0.15 0.13 0.06 0.03 0.03 0.05 0.04 0.02 0.03 0.03 0.02 0.01 0.02 0.01 0.02 0.06 0.05 0.03 0.03 0.02 0.01 0.01 0.02 0.02 0.01 0.00 0.00 0.00 0.00 0.00 0.00 0.00 0.00 0.00 0.00 0.00 0.00 0.00
0.34 0.52 0.60 0.30 0.11 0.05 0.06 0.05 0.03 0.03 0.03 0.03 0.02 0.02 0.02 0.03 0.01 0.00 0.00 0.02 0.06 0.04 0.00 0.00 0.00 0.00 0.00 0.00 0.00 0.00 0.00 0.00 0.00 0.00 0.00 0.00 0.00 0.00 0.00 0.00 0.00 0.00 0.00
0.10 0.27 0.22 0.14 0.05 0.01 0.01 0.01 0.01 0.02 0.02 0.01 0.01 0.01 0.01 0.00 0.00 0.00 0.00 0.00 0.00 0.00 0.00 0.00 0.00 0.00 0.00 0.00 0.00 0.00 0.00 0.00 0.00 0.00 0.00 0.00 0.00 0.00 0.00 0.00 0.00 0.00 0.00
0.00 0.00 0.03 0.05 0.06 0.03 0.02 0.02 0.01 0.01 0.01 0.00 0.00 0.00 0.00 0.00 0.00 0.00 0.00 0.00 0.00 0.00 0.00 0.00 0.00 0.00 0.00 0.00 0.00 0.00 0.00 0.00 0.00 0.00 0.00 0.00 0.00 0.00 0.00 0.00 0.00 0.00 0.00
0.00 0.00 0.00 0.00 0.00 0.00 0.00 0.00 0.00 0.00 0.00 0.00 0.00 0.00 0.00 0.00 0.00 0.00 0.00 0.00 0.00 0.00 0.00 0.00 0.00 0.00 0.00 0.00 0.00 0.00 0.00 0.00 0.00 0.00 0.00 0.00 0.00 0.00 0.00 0.00 0.00 0.00 0.00
0.00 0.00 0.00 0.00 0.00 0.00 0.00 0.00 0.00 0.00 0.00 0.00 0.00 0.00 0.00 0.00 0.00 0.00 0.00 0.00 0.00 0.00 0.00 0.00 0.00 0.00 0.00 0.00 0.00 0.00 0.00 0.00 0.00 0.00 0.00 0.00 0.00 0.00 0.00 0.00 0.00 0.00 0.00
0.00 0.00 0.00 0.00 0.00 0.00 0.00 0.00 0.00 0.00 0.00 0.00 0.00 0.00 0.00 0.00 0.00 0.00 0.00 0.00 0.00 0.00 0.00 0.00 0.00 0.00 0.00 0.00 0.00 0.00 0.00 0.00 0.00 0.00 0.00 0.00 0.00 0.00 0.00 0.00 0.00 0.00 0.00
0.00 0.00 0.00 0.00 0.00 0.00 0.00 0.00 0.00 0.00 0.00 0.00 0.00 0.00 0.00 0.00 0.00 0.00 0.00 0.00 0.00 0.00 0.00 0.00 0.00 0.00 0.00 0.00 0.00 0.00 0.00 0.00 0.00 0.00 0.00 0.00 0.00 0.00 0.00 0.00 0.00 0.00 0.00
0.00 0.00 0.00 0.00 0.00 0.00 0.00 0.00 0.00 0.00 0.00 0.00 0.00 0.00 0.00 0.00 0.00 0.00 0.00 0.00 0.00 0.00 0.00 0.00 0.00 0.00 0.00 0.00 0.00 0.00 0.00 0.00 0.00 0.00 0.00 0.00 0.00 0.00 0.00 0.00 0.00 0.00 0.00
0.00 0.00 0.00 0.00 0.00 0.00 0.00 0.00 0.00 0.00 0.00 0.00 0.00 0.00 0.00 0.00 0.00 0.00 0.00 0.00 0.00 0.00 0.00 0.00 0.00 0.00 0.00 0.00 0.00 0.00 0.00 0.00 0.00 0.00 0.00 0.00 0.00 0.00 0.00 0.00 0.00 0.00 0.00
0.00 0.00 0.00 0.00 0.00 0.00 0.00 0.00 0.00 0.00 0.00 0.00 0.00 0.00 0.00 0.00 0.00 0.00 0.00 0.00 0.00 0.00 0.00 0.00 0.00 0.00 0.00 0.00 0.00 0.00 0.00 0.00 0.00 0.00 0.00 0.00 0.00 0.00 0.00 0.00 0.00 0.00 0.00
0.00 0.00 0.00 0.00 0.00 0.00 0.00 0.00 0.00 0.00 0.00 0.00 0.00 0.00 0.00 0.00 0.00 0.00 0.00 0.00 0.00 0.00 0.00 0.00 0.00 0.00 0.00 0.00 0.00 0.00 0.00 0.00 0.00 0.00 0.00 0.00 0.00 0.00 0.00 0.00 0.00 0.00 0.00
0.01 0.00 0.00 0.00 0.00 0.00 0.00 0.00 0.00 0.00 0.00 0.00 0.00 0.00 0.00 0.00 0.00 0.00 0.00 0.00 0.00 0.00 0.00 0.00 0.00 0.00 0.00 0.00 0.00 0.00 0.00 0.00 0.00 0.00 0.00 0.00 0.00 0.00 0.00 0.00 0.00 0.00 0.00